Torna al catalogo

FENGYUN 1C DEB

LostPO
NORAD 37468·DEBRIS·🇨🇳 China

Lanciato May 10, 1999 da Taiyuan Satellite Launch Center

Loading…

Prossimi Passaggi (prossime 24 ore)

TLE

ObsoletoSource: Space-Track

Epoca: Apr 25, 2017, 01:45 UTC

1 37468U 99025EJN 17115.07303952 +.00000849 +00000-0 +56877-3 0  9994
2 37468 098.1470 065.1017 0071628 054.5360 302.6292 14.01911759386757

Traccia FENGYUN 1C DEB in tempo reale con AllMySat

Download on the App Store